Starlink 36267

operational
NORAD ID: 67198 Int'l Des: 2025-304 Owner: SPXS Country: US Constellation: starlink
LEOCIRCULAR

Über Starlink 36267

Beschreibung wird geladen...

Live-Position

3D-Globus wird geladen...

Nächste Überflüge

Höhenverlauf

Altitude vs Time

uPlot chart will show altitude changes over time

Zweizeiliger Elementsatz

1 67198C 25304G 25352.76715278 .00714270 00000+0 98377-3 0 3525
2 67198 69.9983 31.2732 0009087 255.4347 232.4063 16.05061326 10
Epoch: 18. Dez. 2025 • Age: 44 hours

Aktueller Status

Höhe 269.6 km
Geschwindigkeit 7.75 km/s
Subsatellitenpunkt 56.89°N, 149.02°E
Startdatum 17. Dez. 2025
Alter 2 days
Typ internet

Technische Details

Klassifizierung Payload
Masse 575.00 kg
Trockenmasse 530.00 kg
Gesamtmasse 575.00 kg
Länge 0.30 m
Durchmesser 4.10 m
Spannweite 29.00 m
Form Box + pan
Hersteller SPXS
Bus-Typ Starlink V2MO
Phasenstatus In Orbit
Besitzer/Staat SPXS/US

Große Konstellationen

Loading constellations...